sat.trackr.live / text

‹ back to catalog

STARLINK-4594

NORAD 53638 · 2022-104BC

PAYLOAD ACTIVE UNKNOWN

§ Identity

Operator
Country
US
Launch date
2022-08-28
Launch site
AFETR
Launch vehicle
Mass (kg)
RCS (m²)

Purposes: comms

External: N2YO · Heavens-Above · Gunter

§ Orbital elements

Epoch: 2026-05-24T18:05:54.258144Z

Period
95.44 min
Inclination
53.2156°
Eccentricity
0.0001043
Mean motion
15.08839404 rev/d
Perigee alt
539.0 km
Apogee alt
540.5 km
Semi-major
6,917.9 km
B*
3.8080e-5
RAAN
242.2833°
Arg perigee
92.6541°
Mean anomaly
267.4571°
Rev number
20,771

§ Raw data

STARLINK-45941 53638U 22104BC  26144.75410021  .00000318  00000+0  38080-4 0  99952 53638  53.2156 242.2833 0001043  92.6541 267.4571 15.08839404207719

JSON: /api/v1/satellites/53638 · /tle

For live sub-satellite position, see the globe view (requires WebGL).

§ Visibility from observer

Set your observer location to see the next 7 days of passes ≥ 10°. The values pass through the URL so the page stays shareable.

No JS? Fill the form by hand. The geolocation button needs JavaScript.